Wind_Speed
12 12 12 12 9 9 9 9 7 7 8 8 6 7 8 15 20 26 35 38 37 35 33 31 33 33 33 33 34 35 37 37 37 36 41 37 40 40 41 42 43 44 44 43 42
8 9 11 10 10 9 8 9 9 7 6 7 7 9 6 6 11 19 26 31 31 31 33 34 36 36 37 38 39 41 42 46 41 42 44 44 45 46 46 46 45 48 48 49 47
5 6 7 8 8 8 7 6 6 6 6 7 8 10 10 12 14 15 14 17 21 23 25 27 27 28 29 30 31 36 41 43 42 42 42 45 48 51 50 50 52 52 51 52 50
7 5 4 4 4 5 4 4 4 3 4 5 7 7 7 8 11 11 13 15 18 20 22 24 25 27 29 31 32 35 37 38 41 39 41 43 46 47 50 51 51 53 56 57 56
7 6 5 4 3 2 1 1 2 2 3 4 4 6 7 9 11 12 15 17 19 21 24 27 29 31 33 35 36 38 40 41 43 43 43 44 45 47 49 52 53 54 55 55 58
9 7 7 5 3 2 1 3 4 6 6 7 9 9 11 13 14 17 18 19 21 23 26 29 32 34 36 38 41 41 44 45 47 49 49 49 49 50 50 53 55 58 57 58 58
10 10 9 8 6 5 4 3 4 6 8 9 10 12 13 14 17 19 21 23 25 26 27 30 32 35 38 41 43 46 47 50 53 55 55 57 56 56 57 57 58 60 62 62 62
11 11 11 10 10 9 8 7 7 8 9 10 12 13 14 17 19 21 23 25 27 28 30 32 34 38 40 42 45 46 49 51 56 55 58 60 59 61 63 62 63 64 65 67 67
10 13 14 13 12 10 10 10 9 9 9 10 11 12 13 15 17 20 22 24 26 28 30 32 34 38 40 40 42 45 45 49 51 54 54 58 61 58 62 66 64 63 65 68 71
11 14 16 15 12 14 13 13 12 11 10 10 9 11 12 14 17 19 21 23 26 29 31 32 34 36 38 39 39 43 43 44 44 48 50 51 54 55 60 62 62 63 66 66 68
12 15 16 16 16 14 14 15 13 13 15 14 15 15 15 17 19 20 22 23 26 27 29 32 35 36 39 39 40 41 42 42 44 48 49 49 52 51 55 57 56 57 58 60 61
14 14 15 15 15 15 15 16 15 18 18 17 17 17 18 20 19 22 23 25 27 28 28 29 32 33 35 36 37 39 40 41 44 47 49 48 46 44 41 40 45 47 48 48 49
15 17 18 18 17 16 17 16 16 19 19 18 20 21 21 21 23 24 26 27 28 28 28 29 32 33 34 36 37 37 39 38 41 42 43 42 30 35 36 37 38 41 43 43 44
21 22 21 19 18 18 19 18 19 20 19 18 19 20 20 23 22 24 24 26 27 27 29 30 32 34 35 37 36 34 37 37 35 36 36 37 33 33 36 38 38 37 38 41 43
23 21 19 18 19 20 21 22 22 22 20 19 20 21 21 22 24 22 22 23 24 26 28 30 31 33 34 35 35 35 35 35 36 36 36 31 37 33 42 38 30 31 33 37 41
22 19 18 18 19 21 22 23 24 22 19 20 21 21 21 20 21 23 23 22 24 26 29 30 31 32 33 33 35 36 33 34 39 35 34 34 32 31 34 37 33 33 33 35 41
21 20 21 22 22 22 23 24 24 23 24 21 21 20 19 20 22 23 23 23 25 29 31 32 32 32 35 36 37 37 35 35 37 36 29 35 34 32 31 31 32 33 34 36 41
22 22 24 25 25 24 24 25 24 23 22 21 20 19 18 17 20 22 22 23 24 29 30 32 36 35 36 36 38 39 36 35 39 35 32 34 35 36 35 33 36 36 34 34 38
24 25 27 27 27 26 25 24 23 22 21 20 18 18 16 18 19 22 23 23 26 29 31 34 35 33 36 35 35 34 31 32 36 35 36 39 36 35 40 43 43 47 47 43 41
29 27 28 27 27 25 23 22 21 20 20 19 19 17 15 16 18 22 23 24 26 29 32 34 35 30 32 34 30 27 28 29 32 35 35 36 37 34 41 45 52 53 55 55 53
28 28 26 26 26 25 22 20 20 20 19 20 20 18 17 18 20 23 25 25 28 31 33 34 35 31 32 31 28 25 28 29 31 33 38 41 37 39 43 50 52 50 50 53 50
23 24 23 23 22 21 19 19 20 20 20 20 20 19 19 21 21 24 26 28 29 33 34 34 36 36 29 30 27 26 27 29 34 33 37 40 42 44 47 52 50 49 53 51 53
22 21 20 19 18 16 18 20 21 22 22 22 22 21 23 25 26 26 28 30 31 34 35 37 38 39 35 33 30 27 28 30 34 36 31 41 41 41 44 46 42 44 42 44 47
19 18 18 18 18 20 21 22 22 22 22 23 24 24 25 26 28 28 31 31 30 34 36 38 36 35 34 33 35 33 28 31 35 40 38 40 45 39 44 43 41 41 40 39 40
19 20 20 21 22 24 25 25 25 25 25 26 26 27 28 26 27 30 31 34 30 33 35 36 36 38 34 34 34 35 27 29 33 37 42 43 42 43 44 42 39 40 38 39 38
23 23 23 24 25 25 26 24 25 26 27 29 30 30 31 31 32 30 32 35 33 34 36 38 37 38 34 36 37 33 26 30 30 33 36 42 39 43 41 40 36 38 36 34 33
23 23 24 25 26 27 28 28 28 29 28 31 32 32 33 34 34 35 35 35 34 35 36 38 39 39 38 37 38 30 26 29 29 31 38 39 39 41 37 34 35 38 34 29 30
Wind_Direction
26 27 34 53 67 74 100 110 120 143 153 143 145 197 214 227 215 213 209 209 214 219 223 224 228 231 233 235 238 242 246 248 245 240 242 241 243 241 241 242 246 249 251 252 252
23 29 28 33 53 76 82 93 119 133 145 146 146 148 161 217 245 227 220 220 225 232 237 237 239 241 243 243 242 242 243 243 242 247 249 251 250 249 248 245 245 246 248 250 250
21 23 31 31 38 51 67 82 99 114 132 143 154 157 179 193 193 203 214 226 234 243 246 249 250 252 255 254 251 251 251 254 254 254 254 256 257 256 258 257 253 251 251 252 251
16 20 20 37 45 47 39 56 85 108 153 172 176 182 195 206 212 221 223 227 234 240 246 249 251 254 255 255 256 256 257 259 260 257 255 254 256 258 258 259 259 256 254 254 253
12 20 26 22 12 13 353 204 202 232 231 223 223 226 230 237 245 248 250 252 254 254 255 257 258 259 260 260 260 259 260 261 263 263 261 260 257 255 258 258 257 257 256 255 254
13 15 19 23 31 3 310 287 277 261 242 247 252 249 252 256 258 260 260 263 264 264 264 263 264 264 266 266 266 266 267 267 266 266 265 262 261 260 261 259 259 260 259 257 256
9 5 9 4 6 352 331 289 271 267 264 262 264 262 261 264 260 259 261 261 263 263 263 264 264 265 265 266 267 268 268 268 267 268 269 268 267 264 261 261 259 259 259 259 258
359 358 353 352 351 348 336 321 300 285 276 271 267 268 270 269 270 268 268 268 269 268 267 267 265 263 263 264 266 267 268 270 269 269 270 270 269 269 268 264 261 258 256 257 257
353 351 348 340 341 352 354 342 327 317 304 292 285 283 281 277 274 274 274 276 276 276 276 276 276 276 277 278 280 276 278 277 277 275 275 273 271 277 276 273 270 267 263 259 255
331 339 343 344 345 349 348 354 349 337 328 326 316 307 297 295 294 294 291 289 289 289 289 289 288 287 284 284 284 284 284 282 281 280 281 281 282 284 280 279 278 275 270 265 261
320 329 330 331 334 339 342 343 343 336 334 324 322 320 315 309 306 304 302 303 302 302 304 303 299 297 295 293 289 286 283 280 279 279 280 281 281 279 279 278 279 276 275 274 267
320 321 323 327 331 330 331 331 331 334 330 322 318 315 310 307 307 311 313 315 315 314 312 306 298 296 293 292 289 286 285 283 282 281 281 280 282 276 274 276 274 276 277 278 278
319 320 313 311 315 320 323 327 329 327 328 315 312 312 315 314 318 317 318 318 319 318 315 308 303 302 298 295 292 288 284 283 285 283 282 279 274 265 273 278 285 286 280 280 281
316 319 312 306 311 316 322 324 324 324 321 316 313 317 315 313 321 320 325 324 323 320 315 310 305 302 299 295 294 291 291 291 291 286 283 286 269 275 275 292 296 289 280 279 276
324 315 314 311 313 319 319 322 322 324 318 316 315 317 316 318 321 323 326 324 322 320 317 314 307 299 297 294 291 292 292 292 290 290 288 287 288 278 285 296 297 296 285 273 272
319 314 316 313 315 316 318 319 320 319 318 315 317 318 318 320 325 327 326 325 325 326 325 320 312 301 296 297 296 292 289 288 289 294 295 288 290 288 298 298 300 298 290 280 275
317 311 315 316 316 317 318 318 317 314 315 314 313 317 318 320 323 325 324 325 329 332 331 326 319 311 302 299 296 293 288 286 290 298 299 296 292 299 300 302 305 305 304 287 277
317 312 314 318 318 317 317 315 311 310 310 311 313 314 314 317 319 321 322 323 325 331 331 332 324 320 313 303 295 288 285 285 286 293 291 291 296 301 303 305 299 295 302 294 280
317 312 310 310 310 310 311 308 306 304 306 308 308 309 310 315 318 321 322 322 323 331 332 333 330 325 318 314 306 293 285 285 288 292 295 299 301 303 311 311 305 302 302 296 289
312 311 311 308 307 306 306 303 301 304 306 305 305 301 302 312 319 327 325 321 325 330 332 333 333 327 323 317 308 300 292 290 290 294 296 299 304 306 313 311 308 306 303 300 296
306 306 306 305 304 303 304 303 302 303 303 308 304 298 293 302 313 319 323 321 324 324 330 331 335 329 323 316 300 299 291 291 289 291 295 300 298 311 314 310 308 305 305 300 294
315 313 311 308 308 307 306 306 305 304 299 303 305 299 296 299 307 312 317 318 321 321 328 331 334 334 326 319 305 295 292 291 290 293 295 301 303 313 313 308 310 313 310 307 303
318 317 316 317 315 312 312 310 309 305 301 296 303 303 299 299 302 307 314 316 319 317 324 328 333 334 334 323 314 301 293 292 288 289 300 298 310 316 308 304 306 307 310 308 304
318 319 320 318 314 312 310 308 306 306 303 299 301 303 304 307 307 311 314 317 320 316 320 324 328 327 328 319 313 307 297 292 289 292 299 303 306 316 306 307 303 304 308 313 313
323 321 319 313 310 310 310 309 310 309 306 304 304 307 308 310 311 311 312 312 317 314 318 319 323 324 328 316 311 309 297 288 290 291 293 303 311 310 307 303 301 301 309 315 317
315 317 316 314 314 315 316 316 316 313 312 309 310 310 309 310 309 309 309 309 312 312 315 318 320 323 327 317 314 312 296 292 291 291 298 305 314 306 304 304 298 304 307 307 314
316 318 318 317 315 314 313 313 312 310 310 307 307 306 306 308 307 307 308 307 309 310 312 317 316 320 327 320 317 318 299 294 298 300 304 311 311 306 302 304 302 305 306 303 302
Height
5829 5826 5825 5825 5824 5823 5824 5824 5825 5826 5827 5829 5832 5833 5836 5838 5840 5842 5845 5849 5851 5853 5855 5858 5861 5863 5864 5866 5867 5867 5867 5869 5871 5873 5870 5872 5873 5874 5877 5878 5878 5878 5880 5881 5884
5831 5828 5826 5826 5825 5826 5825 5826 5826 5827 5828 5829 5831 5833 5835 5837 5839 5842 5844 5846 5849 5851 5853 5854 5856 5857 5858 5860 5862 5862 5862 5859 5864 5865 5865 5865 5865 5865 5867 5868 5871 5870 5872 5873 5876
5832 5830 5829 5827 5827 5827 5827 5827 5827 5828 5829 5830 5832 5834 5836 5838 5840 5841 5842 5843 5846 5847 5848 5850 5851 5851 5852 5853 5855 5855 5853 5853 5856 5858 5860 5859 5858 5855 5858 5861 5862 5864 5865 5866 5869
5833 5832 5830 5829 5829 5828 5827 5827 5828 5828 5829 5831 5833 5834 5834 5835 5838 5838 5839 5841 5843 5844 5845 5845 5844 5845 5846 5846 5847 5847 5846 5847 5846 5848 5848 5849 5849 5849 5848 5850 5852 5854 5855 5857 5859
5833 5832 5831 5830 5829 5828 5828 5828 5828 5828 5828 5828 5829 5830 5831 5832 5833 5834 5835 5837 5838 5839 5839 5839 5839 5839 5839 5839 5839 5838 5838 5837 5836 5836 5838 5839 5840 5840 5839 5838 5839 5840 5842 5844 5845
5834 5832 5831 5831 5830 5829 5828 5827 5826 5826 5827 5827 5827 5828 5829 5831 5831 5832 5833 5833 5833 5833 5833 5833 5833 5833 5832 5831 5830 5831 5828 5826 5825 5824 5825 5826 5828 5828 5828 5828 5827 5827 5829 5831 5833
5834 5833 5832 5830 5830 5829 5828 5827 5826 5825 5825 5825 5825 5825 5826 5827 5827 5827 5826 5826 5826 5826 5826 5825 5825 5824 5823 5821 5821 5819 5818 5816 5814 5812 5812 5812 5814 5813 5814 5816 5817 5815 5813 5815 5818
5834 5833 5831 5830 5829 5828 5826 5826 5825 5824 5823 5823 5823 5823 5823 5822 5821 5821 5820 5820 5819 5818 5818 5817 5817 5815 5815 5814 5811 5810 5808 5805 5801 5803 5799 5799 5800 5797 5796 5798 5800 5801 5801 5801 5802
5834 5832 5830 5829 5828 5827 5825 5823 5821 5821 5821 5820 5820 5819 5819 5818 5817 5816 5815 5814 5812 5811 5811 5809 5808 5806 5804 5803 5800 5799 5797 5794 5792 5789 5789 5785 5786 5783 5779 5778 5781 5783 5784 5786 5788
5833 5831 5829 5827 5826 5825 5823 5821 5819 5818 5817 5816 5816 5818 5816 5814 5812 5811 5809 5807 5805 5804 5802 5801 5798 5796 5794 5793 5791 5787 5785 5782 5780 5776 5776 5775 5774 5769 5762 5761 5761 5760 5761 5767 5770
5831 5829 5827 5825 5824 5823 5821 5819 5819 5817 5814 5813 5813 5811 5811 5809 5807 5805 5803 5801 5799 5797 5795 5792 5789 5786 5784 5782 5780 5777 5775 5773 5770 5766 5765 5763 5763 5757 5752 5747 5745 5743 5743 5743 5746
5829 5827 5825 5824 5822 5820 5818 5817 5814 5813 5811 5809 5808 5808 5806 5804 5802 5799 5797 5795 5792 5789 5787 5785 5780 5778 5775 5772 5770 5767 5765 5763 5759 5755 5751 5751 5754 5745 5741 5739 5733 5732 5731 5732 5731
5826 5824 5821 5820 5819 5817 5816 5814 5812 5809 5808 5806 5804 5802 5801 5798 5795 5793 5791 5788 5786 5783 5780 5777 5772 5769 5766 5762 5760 5758 5754 5753 5749 5744 5739 5737 5744 5736 5733 5728 5725 5723 5722 5720 5719
5822 5820 5818 5816 5815 5812 5811 5809 5808 5806 5803 5802 5799 5797 5795 5792 5791 5788 5785 5784 5780 5777 5772 5769 5764 5760 5756 5752 5749 5747 5742 5739 5737 5733 5733 5728 5728 5728 5726 5719 5716 5714 5711 5709 5707
5817 5815 5813 5812 5810 5808 5806 5804 5802 5801 5799 5797 5794 5792 5789 5788 5785 5783 5781 5778 5775 5771 5768 5764 5758 5754 5749 5745 5740 5738 5733 5730 5727 5725 5721 5722 5716 5721 5712 5711 5707 5702 5700 5698 5695
5813 5810 5809 5808 5806 5804 5802 5799 5797 5797 5793 5791 5787 5785 5783 5781 5778 5775 5773 5771 5767 5764 5759 5755 5750 5746 5741 5736 5732 5728 5725 5721 5717 5715 5713 5710 5709 5711 5706 5699 5696 5694 5690 5686 5683
5808 5806 5804 5803 5802 5799 5797 5795 5794 5790 5787 5786 5783 5780 5777 5774 5771 5769 5766 5763 5759 5756 5751 5746 5741 5737 5733 5728 5722 5719 5716 5713 5711 5705 5704 5700 5699 5698 5697 5691 5686 5681 5677 5673 5671
5804 5802 5800 5798 5795 5793 5791 5789 5786 5783 5780 5778 5776 5774 5772 5770 5767 5764 5761 5758 5755 5750 5746 5741 5733 5729 5724 5718 5713 5709 5707 5704 5699 5698 5697 5694 5690 5687 5683 5682 5676 5671 5669 5664 5660
5798 5796 5794 5791 5789 5786 5785 5782 5779 5777 5775 5773 5771 5768 5767 5765 5762 5759 5756 5752 5748 5744 5740 5735 5729 5721 5715 5710 5705 5701 5699 5696 5691 5689 5684 5680 5679 5677 5672 5667 5663 5658 5654 5651 5649
5791 5789 5787 5785 5782 5779 5778 5775 5773 5771 5769 5767 5765 5764 5762 5759 5757 5753 5749 5746 5742 5738 5733 5729 5723 5717 5709 5703 5698 5695 5691 5688 5684 5679 5675 5673 5672 5669 5666 5659 5652 5647 5640 5633 5629
5784 5782 5779 5777 5774 5773 5771 5769 5767 5765 5764 5762 5760 5758 5756 5754 5750 5746 5743 5739 5735 5731 5726 5722 5718 5712 5703 5698 5693 5690 5685 5681 5677 5673 5666 5660 5663 5662 5654 5646 5640 5632 5626 5618 5612
5776 5775 5773 5770 5770 5767 5765 5763 5762 5760 5758 5757 5754 5752 5749 5747 5744 5739 5736 5731 5728 5723 5719 5714 5709 5704 5699 5691 5686 5683 5678 5673 5667 5666 5659 5653 5647 5647 5642 5634 5626 5618 5610 5601 5593
5771 5769 5767 5765 5764 5762 5761 5759 5756 5754 5752 5750 5748 5746 5742 5739 5736 5733 5729 5725 5721 5716 5711 5706 5700 5694 5690 5685 5679 5675 5670 5666 5659 5653 5653 5643 5642 5640 5629 5623 5617 5609 5600 5591 5581
5769 5766 5764 5762 5759 5758 5756 5754 5751 5748 5746 5743 5741 5739 5735 5732 5728 5725 5721 5718 5714 5707 5703 5698 5694 5687 5683 5678 5670 5666 5662 5657 5650 5643 5640 5636 5627 5629 5617 5610 5605 5597 5590 5582 5571
5765 5763 5760 5758 5756 5754 5751 5748 5745 5742 5740 5736 5735 5731 5728 5726 5722 5717 5714 5709 5706 5700 5696 5691 5687 5680 5677 5670 5664 5658 5654 5649 5643 5638 5629 5627 5621 5614 5606 5600 5595 5587 5580 5570 5562
5760 5758 5756 5753 5750 5747 5744 5743 5740 5736 5734 5730 5727 5723 5720 5717 5714 5711 5706 5700 5697 5692 5687 5682 5678 5672 5669 5661 5655 5650 5644 5639 5636 5631 5624 5616 5611 5601 5597 5591 5583 5576 5570 5563 5555
5755 5753 5750 5747 5744 5741 5738 5736 5733 5730 5728 5723 5720 5716 5712 5708 5704 5700 5697 5692 5689 5684 5678 5674 5668 5663 5661 5654 5648 5644 5637 5631 5628 5622 5614 5607 5602 5593 5587 5582 5574 5567 5560 5554 5547